Location: D?uga
(50.2667°N, 19.7833°E)
Time: 00:32:06
(UTC+00:00)

Cosmos 2181 Rocket - Pass Details

Date: 23 May 2024
Orbit: 951 x 1014 km, 82.9° (Epoch: 18 June)

Event Time Altitude Azimuth Distance (km) Brightness Sun altitude
Rises 01:48:36 0° 346° (NNW) 3,746 7.5 -7.5°
Reaches altitude 10° 01:51:14 10° 341° (NNW) 2,784 6.8 -7.2°
Maximum altitude 01:57:18 47° 270° (W) 1,289 4.4 -6.5°
Drops below altitude 10° 02:03:14 10° 199° (SSW) 2,725 5.8 -5.9°
Sets 02:05:48 0° 193° (SSW) 3,659 6.5 -5.6°
Enters shadow 02:05:56 - 193° (SSW) 3,712 6.5 -5.5°
